Date String (YYYY-MM-DD hh:mm:ss) UTC,Instrument flags,Ambient pressure (hPa),Sample flow (lpm),Bypass flow (lpm),Sample temperature (°C),Ambient temperature (°C),ASC tube jacket temperature (°C),LED temperature (°C),Box temperature (°C),Sample RH (%),Span deviation,Mass concentration (μg/m³),Mass concentration (μg/m³),Mass concentration (μg/m³)
DateTimeUTC,F1_M11,P_M11,Q1_M11,Q2_M11,T1_M11,T2_M11,T3_M11,T4_M11,T5_M11,U1_M11,ZSPAN_M11,X0_M11,X2_M11,X1_M11
2022-09-17 07:00:00,,0824.3,5.00,0.00,30.6,26.9,00.0,39.2,32.2,16.9,0000.0,0003.24,0002.21,0001.87
2022-09-17 07:01:00,,0824.2,4.99,0.00,30.5,27.0,00.0,39.2,32.0,16.4,0000.0,0003.23,0002.22,0001.90
2022-09-17 07:02:00,,0824.2,5.00,0.00,30.4,27.4,00.0,39.2,32.0,16.4,0000.0,0003.44,0002.28,0001.92
2022-09-17 07:03:00,,0824.1,5.00,0.00,30.3,27.7,00.0,39.1,31.9,16.6,0000.0,0003.44,0002.31,0001.93
2022-09-17 07:04:00,,0824.1,5.01,0.00,30.3,27.9,00.0,39.1,32.0,16.4,0000.0,0003.42,0002.31,0001.92
2022-09-17 07:05:00,,0824.1,5.00,0.00,30.3,28.1,00.0,39.1,31.9,16.5,0000.0,0003.29,0002.24,0001.90
2022-09-17 07:06:00,,0824.1,4.99,0.00,30.3,28.3,00.0,39.1,32.0,16.6,0000.0,0003.41,0002.18,0001.86
2022-09-17 07:07:00,,0824.1,5.00,0.00,30.2,28.4,00.0,39.1,32.0,16.3,0000.0,0003.35,0002.13,0001.81
2022-09-17 07:08:00,,0824.1,5.00,0.00,30.2,28.5,00.0,39.1,32.0,16.1,0000.0,0003.14,0002.07,0001.76
2022-09-17 07:09:00,,0824.2,5.01,0.00,30.2,28.6,00.0,39.1,32.0,16.2,0000.0,0003.06,0002.02,0001.72
2022-09-17 07:10:00,,0824.1,5.00,0.00,30.2,28.7,00.0,39.1,32.0,16.9,0000.0,0002.79,0001.93,0001.67
2022-09-17 07:11:00,,0824.1,5.00,0.00,30.3,28.7,00.0,39.0,32.0,16.9,0000.0,0002.65,0001.86,0001.64
2022-09-17 07:12:00,,0824.1,5.00,0.00,30.3,28.8,00.0,39.0,32.0,17.0,0000.0,0002.58,0001.82,0001.62
2022-09-17 07:13:00,,0824.1,5.00,0.00,30.3,28.8,00.0,39.0,32.1,17.0,0000.0,0002.66,0001.78,0001.61
2022-09-17 07:14:00,,0824.1,4.99,0.00,30.3,28.9,00.0,39.1,32.1,16.8,0000.0,0004.06,0001.78,0001.61
2022-09-17 07:15:00,,0824.1,4.99,0.00,30.3,28.9,00.0,39.1,32.1,16.7,0000.0,0004.07,0001.77,0001.60
2022-09-17 07:16:00,,0824.1,5.01,0.00,30.3,29.0,00.0,39.1,32.1,16.6,0000.0,0004.06,0001.76,0001.59
2022-09-17 07:17:00,,0824.1,4.99,0.00,30.3,29.0,00.0,39.1,32.1,16.8,0000.0,0003.76,0001.74,0001.58
2022-09-17 07:18:00,,0824.1,5.00,0.00,30.4,29.0,00.0,39.1,32.2,16.9,0000.0,0004.40,0001.73,0001.58
2022-09-17 07:19:00,,0824.1,5.01,0.00,30.4,29.0,00.0,39.1,32.2,16.8,0000.0,0005.03,0001.72,0001.59
2022-09-17 07:20:00,,0824.1,4.99,0.00,30.4,29.0,00.0,39.1,32.2,16.7,0000.0,0005.02,0001.71,0001.60
2022-09-17 07:21:00,,0824.1,5.01,0.00,30.4,29.1,00.0,39.1,32.2,17.0,0000.0,0005.08,0001.74,0001.61
2022-09-17 07:22:00,,0824.2,4.99,0.00,30.4,29.1,00.0,39.1,32.2,17.2,0000.0,0005.13,0001.75,0001.61
2022-09-17 07:23:00,,0824.3,5.00,0.00,30.4,29.1,00.0,39.2,32.3,17.4,0000.0,0005.17,0001.77,0001.61
2022-09-17 07:24:00,,0824.2,5.01,0.00,30.5,29.2,00.0,39.2,32.3,17.2,0000.0,0005.23,0001.79,0001.63
2022-09-17 07:25:00,,0824.3,4.99,0.00,30.5,29.2,00.0,39.2,32.3,17.1,0000.0,0003.94,0001.83,0001.63
2022-09-17 07:26:00,,0824.2,5.00,0.00,30.5,29.2,00.0,39.2,32.3,17.2,0000.0,0003.73,0001.86,0001.64
2022-09-17 07:27:00,,0824.2,4.99,0.00,30.5,29.2,00.0,39.2,32.3,17.0,0000.0,0004.20,0001.92,0001.67
2022-09-17 07:28:00,,0824.2,5.01,0.00,30.5,29.2,00.0,39.2,32.3,17.0,0000.0,0004.65,0001.96,0001.69
2022-09-17 07:29:00,,0824.2,5.00,0.00,30.5,29.2,00.0,39.2,32.3,17.0,0000.0,0004.36,0001.99,0001.71
2022-09-17 07:30:00,,0824.3,5.00,0.00,30.5,29.2,00.0,39.3,32.3,16.7,0000.0,0003.74,0002.03,0001.72
2022-09-17 07:31:00,,0824.2,4.99,0.00,30.5,29.2,00.0,39.3,32.4,17.0,0000.0,0003.79,0002.06,0001.74
2022-09-17 07:32:00,,0824.2,5.01,0.00,30.6,29.2,00.0,39.3,32.4,17.2,0000.0,0003.79,0002.08,0001.76
2022-09-17 07:33:00,,0824.3,4.99,0.00,30.6,29.2,00.0,39.3,32.4,17.4,0000.0,0003.77,0002.09,0001.78
2022-09-17 07:34:00,,0824.3,5.00,0.00,30.6,29.2,00.0,39.3,32.4,17.5,0000.0,0003.90,0002.12,0001.79
2022-09-17 07:35:00,,0824.2,5.00,0.00,30.6,29.2,00.0,39.3,32.4,17.4,0000.0,0004.09,0002.17,0001.81
2022-09-17 07:36:00,,0824.2,5.00,0.00,30.6,29.2,00.0,39.3,32.4,17.3,0000.0,0004.28,0002.16,0001.81
2022-09-17 07:37:00,,0824.1,5.00,0.00,30.6,29.2,00.0,39.3,32.4,17.2,0000.0,0005.14,0002.17,0001.82
2022-09-17 07:38:00,,0824.1,4.99,0.00,30.6,29.2,00.0,39.3,32.4,17.2,0000.0,0005.10,0002.15,0001.83
2022-09-17 07:39:00,,0824.1,5.01,0.00,30.6,29.2,00.0,39.4,32.4,17.2,0000.0,0005.96,0002.21,0001.83
2022-09-17 07:40:00,,0824.1,4.99,0.00,30.6,29.3,00.0,39.4,32.4,17.0,0000.0,0005.87,0002.22,0001.82
2022-09-17 07:41:00,,0824.1,5.01,0.00,30.6,29.3,00.0,39.4,32.4,17.3,0000.0,0005.81,0002.24,0001.84
2022-09-17 07:42:00,,0824.1,4.99,0.00,30.6,29.3,00.0,39.4,32.4,17.4,0000.0,0005.84,0002.26,0001.85
2022-09-17 07:43:00,,0824.1,5.02,0.00,30.7,29.3,00.0,39.4,32.4,17.1,0000.0,0005.85,0002.26,0001.85
2022-09-17 07:44:00,,0824.1,4.99,0.00,30.7,29.2,00.0,39.4,32.4,17.1,0000.0,0005.85,0002.27,0001.86
2022-09-17 07:45:00,,0824.1,5.01,0.00,30.7,28.0,00.0,39.4,32.4,17.0,0000.0,0006.51,0002.25,0001.86
2022-09-17 07:46:00,,0824.1,5.00,0.00,30.6,26.9,00.0,39.3,32.3,17.0,0000.0,0006.46,0002.20,0001.85
2022-09-17 07:47:00,,0824.1,5.01,0.00,30.5,26.9,00.0,39.3,32.2,16.9,0000.0,0006.24,0002.19,0001.85
2022-09-17 07:48:00,,0824.1,4.99,0.00,30.4,27.2,00.0,39.2,32.0,16.9,0000.0,0005.25,0002.17,0001.85
2022-09-17 07:49:00,,0824.1,4.99,0.00,30.4,27.5,00.0,39.2,32.0,16.9,0000.0,0005.10,0002.18,0001.85
2022-09-17 07:50:00,,0824.1,5.01,0.00,30.3,27.8,00.0,39.1,32.0,17.0,0000.0,0003.79,0002.12,0001.86
2022-09-17 07:51:00,,0824.1,5.00,0.00,30.3,28.0,00.0,39.1,31.9,17.1,0000.0,0003.62,0002.11,0001.87
2022-09-17 07:52:00,,0824.1,4.99,0.00,30.3,28.2,00.0,39.1,32.0,17.2,0000.0,0003.57,0002.08,0001.87
2022-09-17 07:53:00,,0824.1,5.01,0.00,30.3,28.3,00.0,39.1,32.0,17.2,0000.0,0003.79,0002.09,0001.87
2022-09-17 07:54:00,,0824.1,4.99,0.00,30.2,28.4,00.0,39.1,32.0,17.1,0000.0,0003.83,0002.10,0001.87
2022-09-17 07:55:00,,0824.1,5.00,0.00,30.2,28.5,00.0,39.1,32.0,17.1,0000.0,0003.88,0002.11,0001.86
2022-09-17 07:56:00,,0824.1,4.99,0.00,30.2,28.6,00.0,39.1,32.0,17.1,0000.0,0003.13,0002.12,0001.86
2022-09-17 07:57:00,,0824.2,5.01,0.00,30.2,28.7,00.0,39.1,32.0,17.1,0000.0,0002.96,0002.12,0001.87
2022-09-17 07:58:00,,0824.1,4.99,0.00,30.2,28.7,00.0,39.1,32.0,17.1,0000.0,0002.99,0002.14,0001.88
2022-09-17 07:59:00,,0824.1,5.01,0.00,30.3,28.7,00.0,39.1,32.0,17.1,0000.0,0003.10,0002.18,0001.89
